[[{"header":{"parameterUnit":"m.s-1","parameterCategory":1,"la1":30.2991,"la2":30.254,"lo1":-89.0895,"lo2":-89.0444,"dy":0.0017,"dx":0.0017,"nx":28,"ny":28,"refTime":"2025-05-28T03:00:00:Z","depth":0,"parameterNumber":2,"parameterNumberName":"U-component_of_WINDS"},"data":[0,0,0,0,0,0,0,0,0,0,0,0,0,0,0,0,0,0,0,0,0,0,0,0,0,0,0,0,0,0,0,0,0,0,0,0,0,0,0,0,0,0,0,0,0,0,0,0,0,0,0,0,0,0,0,0,0,0,2.3994,2.3994,0,2.3973,2.3973,2.3973,2.3868,2.3866,2.3863,2.3861,2.3846,2.3848,2.385,0,0,0,0,0,0,0,0,0,0,0,0,0,2.3948,2.395,2.3994,2.3994,2.3993,2.3973,2.3973,2.3973,2.3868,2.3865,2.3862,2.386,2.3845,2.3848,2.385,0,0,0,0,0,0,0,0,0,0,0,0,0,2.3952,2.395,2.3994,2.3939,2.3933,2.3973,2.3973,2.3973,2.3869,2.3865,2.3862,2.3858,2.3845,2.3847,2.385,2.3944,0,0,2.3859,2.3861,0,0,0,0,0,0,0,0,2.3952,2.3954,2.3947,2.3942,2.3937,2.3919,2.3951,2.3963,2.387,2.3894,2.3861,2.3856,2.3874,2.3874,2.3879,2.3943,2.3942,2.386,2.3861,2.3863,2.3863,0,0,0,0,0,0,0,2.3952,2.3954,2.3986,2.3947,2.3941,2.3917,2.3913,2.3953,2.3905,2.3891,2.3884,2.3882,2.387,2.3876,2.3878,2.3942,2.3859,2.3862,2.3864,2.3865,2.4082,2.4086,0,0,0,0,0,0,2.3959,2.3955,2.3986,2.3985,2.3935,2.3921,2.3917,2.3929,2.3905,2.3897,2.3886,2.3878,2.3873,2.3874,2.3877,2.3984,2.3863,2.3865,2.3867,2.4078,2.4083,2.4088,0,0,0,0,0,0,2.3958,2.3962,2.3987,2.3968,2.3969,2.3925,2.394,2.393,2.3936,2.39,2.3892,2.39,2.387,2.3873,2.3927,2.3982,2.3867,2.3869,2.4074,2.408,2.4085,2.4201,0,0,0,0,0,0,2.3957,2.3963,2.3996,2.3969,2.3971,2.4037,2.3943,2.3933,2.3941,2.393,2.3911,2.3905,2.3867,2.3924,2.393,2.3984,2.3872,2.4069,2.4076,2.4084,2.4192,2.421,2.4225,0,0,0,0,0,2.3956,2.4031,2.3999,2.4003,2.4011,2.404,2.4041,2.3995,2.3945,2.398,2.3957,2.3905,2.3975,2.393,2.3937,2.3993,2.4065,2.4074,2.4083,2.4184,2.4206,2.4225,0,0,0,0,0,0,2.4068,2.4027,2.399,2.4058,2.4053,2.4022,2.4064,2.402,2.403,2.402,2.3964,2.3961,2.4024,2.4014,2.3964,2.4082,2.4011,2.4022,2.4086,2.4107,2.4123,2.4125,2.3874,0,0,0,0,0,2.41,2.4125,2.4088,2.4152,2.4151,2.4109,2.412,2.4084,2.4078,2.4076,2.4056,2.4054,2.4075,2.409,2.4108,2.419,2.4185,2.4231,2.4248,2.4262,2.4273,2.4315,2.4336,2.4117,2.4117,2.4117,0,0,2.4168,2.4148,2.4168,2.4174,2.4166,2.4195,2.4108,2.4142,2.4163,2.4081,2.4131,2.4118,2.4111,2.418,2.4209,2.4173,2.4332,2.4274,2.4285,2.4288,2.4327,2.4348,2.4366,2.4123,2.4122,2.4121,0,0,2.4306,2.4293,2.4345,2.4338,2.4326,2.4297,2.431,2.4286,2.4273,2.4322,2.4261,2.4286,2.4324,2.4322,2.4326,2.4463,2.4416,2.4471,2.4559,2.4601,2.4618,2.4633,2.4683,2.4701,2.4481,2.4481,2.4481,0,2.4392,2.4431,2.4378,2.4415,2.4421,2.4346,2.4399,2.4396,2.4391,2.4398,2.4357,2.4402,2.4392,2.446,2.4493,2.4499,2.4512,2.4472,2.462,2.4634,2.4648,2.4694,2.4713,2.4488,2.4487,2.4486,2.4486,0,2.4538,2.4566,2.4609,2.4605,2.4615,2.466,2.4616,2.4633,2.4597,2.4573,2.4624,2.461,2.4623,2.4636,2.4602,2.4699,2.4677,2.4629,2.4557,2.4676,2.4719,2.4736,2.4497,2.4495,2.4493,2.4491,0,0,2.4746,2.471,2.4727,2.4724,2.4706,2.4727,2.477,2.4781,2.4797,2.4797,2.4832,2.4866,2.4821,2.4826,2.4791,2.4828,2.4938,2.4775,2.4774,2.4806,2.5045,2.5081,2.5103,2.4907,2.491,2.4913,2.5045,0,2.4877,2.4946,2.4899,2.4977,2.5003,2.4932,2.4969,2.4963,2.4942,2.4963,2.494,2.4965,2.4903,2.4906,2.4939,2.4918,2.4985,2.4907,2.4941,2.4943,2.4945,2.5125,2.5163,2.5289,2.5062,2.5064,2.5067,0,2.504,2.5045,2.5124,2.51,2.5109,2.5144,2.515,2.517,2.5162,2.5144,2.515,2.5105,2.5147,2.5077,2.5134,2.5082,2.5093,2.5085,2.5089,2.509,2.5012,2.5132,2.5328,2.5347,2.5092,2.509,2.5088,0,2.5184,2.5211,2.5261,2.5261,2.5234,2.526,2.5251,2.5239,2.5249,2.5255,2.5261,2.5274,2.5281,2.5292,2.5253,2.5205,2.5317,2.5242,2.5304,2.5305,2.5331,2.533,2.5533,2.5338,2.5338,2.5338,2.5337,0,2.5336,2.5387,2.5325,2.5357,2.5413,2.536,2.5417,2.5401,2.5391,2.5419,2.536,2.5388,2.5334,2.5358,2.5328,2.5381,2.5385,2.5372,2.5364,2.5378,2.5379,2.5384,2.5375,2.5342,2.5341,2.534,2.534,0,2.5506,2.5466,2.5517,2.5487,2.5481,2.5524,2.5499,2.5528,2.5503,2.554,2.5545,2.5507,2.5531,2.5493,2.5514,2.5493,2.5567,2.5545,2.5569,2.5562,2.5626,2.5621,2.584,2.5866,2.5655,2.5657,2.5659,0,2.5606,2.5643,2.5617,2.5631,2.5624,2.5647,2.5656,2.5606,2.5618,2.5612,2.5643,2.5661,2.5674,2.5717,2.5692,2.5707,2.5685,2.5761,2.5688,2.57,2.5687,2.5685,2.5689,2.5776,2.5779,2.5781,2.5783,0,2.5787,2.5765,2.5779,2.5787,2.5799,2.5803,2.5804,2.5819,2.5766,2.5783,2.5806,2.5816,2.5836,2.5857,2.5866,2.5858,2.5813,2.5806,2.5821,2.5836,2.5848,2.5843,2.561,2.5801,2.5799,2.5798,2.5797,2.5796,2.5924,2.5954,2.5941,2.5959,2.5953,2.5955,2.598,2.5958,2.5975,2.5987,2.5957,2.5987,2.5979,2.5987,2.5984,2.6009,2.5976,2.5998,2.6003,2.601,2.602,2.5844,2.601,2.601,2.6009,2.6009,2.6008,0,2.6102,2.609,2.6107,2.6108,2.6123,2.6077,2.6075,2.6091,2.6118,2.6113,2.6126,2.6154,2.6173,2.6149,2.6164,2.6189,2.6168,2.6195,2.6193,2.6192,2.6048,2.6033,2.6211,2.6211,2.6211,2.6211,2.6211,2.6211,2.6197,2.6245,2.6222,2.6268,2.6256,2.6283,2.6286,2.6288,2.6284,2.6317,2.6332,2.6315,2.6304,2.6318,2.6334,2.6327,2.6335,2.6369,2.6355,2.6222,2.6202,2.6183,2.6169,2.6372,2.6372,2.6496,2.6497,2.6498]},{"header":{"parameterUnit":"m.s-1","parameterCategory":1,"la1":30.2991,"la2":30.254,"lo1":-89.0895,"lo2":-89.0444,"dy":0.0017,"dx":0.0017,"nx":28,"ny":28,"refTime":"2025-05-28T03:00:00:Z","depth":0,"parameterNumber":3,"parameterNumberName":"V-component_of_WINDS"},"data":[0,0,0,0,0,0,0,0,0,0,0,0,0,0,0,0,0,0,0,0,0,0,0,0,0,0,0,0,0,0,0,0,0,0,0,0,0,0,0,0,0,0,0,0,0,0,0,0,0,0,0,0,0,0,0,0,0,0,5.8695,5.8697,0,5.8898,5.89,5.8902,5.8899,5.8897,5.8894,5.8891,5.9089,5.9097,5.9104,0,0,0,0,0,0,0,0,0,0,0,0,0,5.8295,5.8303,5.8695,5.8698,5.87,5.8897,5.89,5.8903,5.89,5.8896,5.8893,5.889,5.9086,5.9096,5.9105,0,0,0,0,0,0,0,0,0,0,0,0,0,5.848,5.8305,5.8695,5.8723,5.8727,5.8897,5.89,5.8903,5.89,5.8896,5.8892,5.8889,5.9083,5.9095,5.9106,5.9258,0,0,5.9142,5.9147,0,0,0,0,0,0,0,0,5.847,5.8495,5.8716,5.8721,5.8726,5.8869,5.8831,5.9022,5.8901,5.8834,5.8891,5.8887,5.9018,5.9035,5.9082,5.9267,5.9276,5.9143,5.915,5.9155,5.9158,0,0,0,0,0,0,0,5.8457,5.8486,5.8775,5.8719,5.8726,5.8721,5.8743,5.8867,5.8946,5.884,5.884,5.8865,5.902,5.907,5.9086,5.9279,5.9142,5.9153,5.916,5.9164,5.9596,5.96,0,0,0,0,0,0,5.844,5.8475,5.8768,5.8781,5.8586,5.8732,5.8756,5.8827,5.8945,5.8959,5.8868,5.8864,5.9053,5.9073,5.9093,5.9277,5.9155,5.9166,5.9172,5.9591,5.9597,5.9602,0,0,0,0,0,0,5.8431,5.8466,5.876,5.8628,5.8666,5.8743,5.8823,5.8833,5.8884,5.8966,5.8979,5.8905,5.905,5.9077,5.9217,5.9284,5.9171,5.9181,5.9586,5.9593,5.9599,5.9648,0,0,0,0,0,0,5.842,5.8463,5.8524,5.863,5.8673,5.8885,5.8827,5.884,5.8905,5.8901,5.9005,5.9018,5.9049,5.92,5.9229,5.9298,5.9191,5.958,5.9589,5.9597,5.964,5.9655,5.9668,0,0,0,0,0,5.8405,5.8528,5.8527,5.8563,5.8752,5.8888,5.8912,5.8949,5.891,5.8971,5.9023,5.9015,5.9272,5.9214,5.9247,5.9321,5.9576,5.9587,5.9596,5.9634,5.9652,5.9668,0,0,0,0,0,0,5.8425,5.8543,5.8543,5.8705,5.8787,5.8888,5.8965,5.8967,5.906,5.9052,5.909,5.9113,5.9253,5.9301,5.9234,5.9472,5.9419,5.9436,5.9436,5.9454,5.9468,5.9453,5.92,0,0,0,0,0,5.8449,5.8554,5.8649,5.8782,5.8824,5.8888,5.8948,5.8969,5.9055,5.9089,5.9152,5.9232,5.9331,5.9395,5.9491,5.9647,5.9667,5.9713,5.9727,5.9738,5.9752,5.9835,5.9856,5.9635,5.9635,5.9634,0,0,5.8498,5.8575,5.8639,5.8788,5.8855,5.8959,5.8917,5.9029,5.9106,5.9105,5.9242,5.929,5.9382,5.9531,5.9599,5.9574,5.9817,5.9751,5.9759,5.9767,5.9848,5.9868,5.9887,5.9641,5.964,5.9639,0,0,5.8641,5.8711,5.8829,5.8897,5.8998,5.904,5.9067,5.9168,5.9201,5.934,5.9341,5.943,5.96,5.9665,5.9721,5.9885,5.988,5.9915,5.9987,6.0067,6.0085,6.01,6.0157,6.0177,5.9929,5.9929,5.9929,0,5.8689,5.8849,5.8888,5.9002,5.9066,5.9072,5.919,5.9252,5.9378,5.9421,5.9392,5.9605,5.9667,5.9829,5.987,5.9915,5.9945,5.9904,6.008,6.0096,6.0111,6.0165,6.0187,5.9932,5.9932,5.9932,5.9931,0,5.8901,5.9012,5.9094,5.922,5.9293,5.9407,5.946,5.9529,5.9542,5.9585,5.9724,5.9799,5.9909,5.9949,5.9962,6.0113,6.0094,6.0072,6.0019,6.0135,6.0186,6.0208,5.9938,5.9936,5.9935,5.9934,0,0,5.9064,5.9209,5.9238,5.9294,5.9406,5.949,5.9603,5.9713,5.977,5.9856,5.9949,6.0092,6.0073,6.0135,6.0155,6.0226,6.0349,6.0195,6.0198,6.022,6.0516,6.0532,6.0556,6.0346,6.0351,6.0354,6.0508,0,5.9217,5.9423,5.946,5.9637,5.9738,5.9744,5.9842,5.9918,5.9961,6.0049,6.0094,6.0195,6.0162,6.02,6.027,6.032,6.0409,6.0309,6.043,6.0434,6.0407,6.0583,6.06,6.0743,6.0529,6.0532,6.0535,0,5.9425,5.9519,5.9707,5.9804,5.9847,5.9935,6.0038,6.0124,6.0209,6.0235,6.0304,6.0316,6.0429,6.0371,6.0525,6.0456,6.0507,6.0539,6.0545,6.0557,6.0491,6.0599,6.0789,6.081,6.0567,6.0565,6.0563,0,5.9523,5.9696,5.9831,5.9878,5.9994,6.0055,6.0106,6.0188,6.0251,6.0339,6.038,6.0479,6.0533,6.0608,6.0644,6.0599,6.0795,6.0741,6.0816,6.0815,6.0857,6.0854,6.1057,6.0892,6.0891,6.0891,6.089,0,5.969,5.9804,5.9876,5.9959,6.0085,6.0125,6.0248,6.0297,6.0369,6.0458,6.0468,6.055,6.0594,6.0682,6.0711,6.0833,6.0857,6.0878,6.0884,6.0877,6.0874,6.0911,6.0901,6.0897,6.0895,6.0894,6.0893,0,5.9821,5.9874,6.0021,6.0119,6.0146,6.0235,6.0317,6.0395,6.0437,6.0549,6.0577,6.0641,6.0745,6.0789,6.0916,6.0935,6.1074,6.1073,6.1046,6.1048,6.1121,6.1113,6.1354,6.1387,6.12,6.1202,6.1204,0,5.9924,6.0013,6.0121,6.0183,6.0236,6.0336,6.0401,6.0442,6.0508,6.0611,6.0676,6.078,6.0866,6.1031,6.1086,6.1182,6.1182,6.126,6.1197,6.1186,6.1182,6.1176,6.1184,6.1272,6.1274,6.1275,6.1276,0,6.0101,6.0123,6.0218,6.0323,6.0401,6.0484,6.0564,6.0613,6.0666,6.0739,6.0847,6.0914,6.1044,6.1146,6.1245,6.1292,6.1292,6.1296,6.1318,6.1312,6.1292,6.1302,6.1077,6.129,6.1289,6.1288,6.1287,6.1286,6.0221,6.0299,6.0387,6.0492,6.0558,6.0633,6.0711,6.0763,6.0855,6.0966,6.0983,6.1097,6.1177,6.131,6.1362,6.1449,6.1429,6.1461,6.1469,6.1477,6.1481,6.1279,6.1467,6.1466,6.1466,6.1466,6.1465,0,6.0397,6.0454,6.0551,6.0665,6.0746,6.0742,6.083,6.0898,6.1,6.1076,6.116,6.1282,6.1381,6.1444,6.1542,6.16,6.1602,6.1624,6.162,6.163,6.1494,6.1464,6.1621,6.1621,6.1621,6.1621,6.162,6.162,6.0498,6.063,6.0662,6.0824,6.0879,6.0994,6.1045,6.1112,6.1173,6.131,6.1394,6.1435,6.1505,6.1608,6.1697,6.1712,6.1747,6.1771,6.1785,6.1656,6.164,6.1624,6.1597,6.1778,6.1779,6.1914,6.1915,6.1916]}]]